Weather History for Plattsmouth, NE

Change the Weather History Date:

Wednesday, March 20, 2013

  Actual Average (KOFF) Record (KOFF)
Temperature  
Mean Temperature 26 °F -  
Max Temperature 35 °F 49 °F 73 °F (1997)
Min Temperature 16 °F 29 °F 16 °F (2013)
Degree Days  
Heating Degree Days 40    
Moisture  
Dew Point 8 °F    
Average Humidity 49    
Maximum Humidity 72    
Minimum Humidity 30    
Precipitation  
Precipitation 0.00 in - - ()
Sea Level Pressure  
Sea Level Pressure 30.28 in    
Wind  
Wind Speed 14 mph (NNW)    
Max Wind Speed 22 mph    
Max Gust Speed 28 mph    
Visibility 10 miles    
Events      
Averages and records for this station are not official NWS values.
T = Trace of Precipitation, MM = Missing Value Source: NWS Daily Summary

Daily Weather History Graph

Daily Weather History Graph

Search for Another Location

Airport:

Trip Planner

Search our weather history database for the weather conditions in past years. The results will help you decide how hot, cold, wet, or windy it might be!

Date:

Astronomy

Mar. 20, 2013 Rise Set
Actual Time 7:26 AM CDT 7:36 PM CDT
Civil Twilight 6:59 AM CDT 8:03 PM CDT
Nautical Twilight 6:27 AM CDT 8:35 PM CDT
Astronomical Twilight 5:54 AM CDT 9:08 PM CDT
Moon 1:09 PM CDT (3/20) 3:09 AM CDT (3/20)
Length of Visible Light 13h 04m
Length of Day
12h 09m
First Quarter, 59% of the Moon is Illuminated
Mar 20
First Quarter
Mar 27
Full
Apr 2
Last Quarter
Apr 10
New
Apr 18
First Quarter

Hourly Weather History & Observations

Time (CDT) Temp. Windchill Dew Point Humidity Pressure Visibility Wind Dir Wind Speed Gust Speed Precip Events Conditions
12:15 AM 28.4 °F 14.7 °F 14.0 °F 55% 30.31 in 10.0 mi NNW 21.9 mph 27.6 mph N/A   Clear
12:35 AM 27.3 °F 16.1 °F 14.5 °F 59% 30.33 in 10.0 mi NW 13.8 mph 21.9 mph N/A   Clear
12:55 AM 26.4 °F 12.8 °F 12.0 °F 55% 30.33 in 10.0 mi NW 19.6 mph 26.5 mph N/A   Clear
1:15 AM 24.8 °F 11.1 °F 12.9 °F 61% 30.33 in 10.0 mi NNW 18.4 mph 25.3 mph N/A   Clear
1:35 AM 23.9 °F 9.9 °F 13.1 °F 63% 30.34 in 10.0 mi NNW 18.4 mph 23.0 mph N/A   Clear
1:55 AM 22.8 °F 9.9 °F 11.8 °F 63% 30.35 in 10.0 mi NW 15.0 mph - N/A   Clear
2:15 AM 22.1 °F 9.5 °F 12.2 °F 66% 30.36 in 10.0 mi NW 13.8 mph 20.7 mph N/A   Clear
2:35 AM 21.9 °F 8.7 °F 11.3 °F 64% 30.35 in 10.0 mi NNW 15.0 mph - N/A   Clear
2:55 AM 21.2 °F 6.4 °F 11.5 °F 66% 30.35 in 10.0 mi NW 18.4 mph 23.0 mph N/A   Clear
3:15 AM 20.8 °F 6.8 °F 10.8 °F 65% 30.36 in 10.0 mi NW 16.1 mph - N/A   Clear
3:35 AM 20.3 °F 7.2 °F 11.3 °F 68% 30.36 in 10.0 mi NW 13.8 mph - N/A   Clear
3:55 AM 20.3 °F 7.2 °F 10.4 °F 66% 30.36 in 10.0 mi NW 13.8 mph - N/A   Clear
4:15 AM 19.8 °F 6.5 °F 10.4 °F 67% 30.36 in 10.0 mi NW 13.8 mph 17.3 mph N/A   Clear
4:35 AM 19.8 °F 3.7 °F 9.0 °F 63% 30.35 in 10.0 mi NNW 20.7 mph 26.5 mph N/A   Clear
4:55 AM 19.4 °F 6.0 °F 9.7 °F 66% 30.36 in 10.0 mi NNW 13.8 mph 24.2 mph N/A   Clear
5:15 AM 18.9 °F 5.3 °F 10.4 °F 70% 30.36 in 10.0 mi NW 13.8 mph - N/A   Clear
5:35 AM 18.5 °F 6.1 °F 10.4 °F 71% 30.36 in 10.0 mi NW 11.5 mph - N/A   Clear
5:55 AM 18.5 °F 2.9 °F 10.8 °F 72% 30.36 in 10.0 mi NW 18.4 mph 23.0 mph N/A   Clear
6:15 AM 18.5 °F 3.3 °F 9.9 °F 69% 30.37 in 10.0 mi NW 17.3 mph 24.2 mph N/A   Clear
6:35 AM 18.1 °F 2.9 °F 9.1 °F 68% 30.38 in 10.0 mi NNW 17.3 mph 24.2 mph N/A   Clear
6:55 AM 17.6 °F 2.2 °F 8.6 °F 68% 30.38 in 10.0 mi NW 17.3 mph 23.0 mph N/A   Clear
7:15 AM 17.2 °F 1.7 °F 7.7 °F 66% 30.37 in 10.0 mi NW 17.3 mph 26.5 mph N/A   Clear
7:35 AM 17.1 °F 1.0 °F 4.5 °F 58% 30.38 in 10.0 mi NNW 18.4 mph 24.2 mph N/A   Clear
7:55 AM 16.7 °F 0.5 °F 4.8 °F 60% 30.38 in 10.0 mi NNW 18.4 mph 24.2 mph N/A   Clear
8:15 AM 17.1 °F 3.0 °F 4.5 °F 58% 30.38 in 10.0 mi NNW 13.8 mph 21.9 mph N/A   Clear
8:35 AM 17.6 °F 2.2 °F 4.1 °F 56% 30.38 in 10.0 mi NNW 17.3 mph 23.0 mph N/A   Clear
8:55 AM 18.3 °F 3.6 °F 3.7 °F 53% 30.38 in 10.0 mi NNW 16.1 mph 24.2 mph N/A   Clear
9:15 AM 19.0 °F 5.0 °F 4.1 °F 52% 30.38 in 10.0 mi NNW 15.0 mph - N/A   Clear
9:35 AM 20.1 °F 5.9 °F 4.3 °F 50% 30.39 in 10.0 mi NNW 16.1 mph - N/A   Clear
9:55 AM 20.5 °F 6.4 °F 2.7 °F 46% 30.38 in 10.0 mi NNW 16.1 mph 20.7 mph N/A   Clear
10:15 AM 21.6 °F 8.8 °F 2.8 °F 44% 30.38 in 10.0 mi NW 13.8 mph 20.7 mph N/A   Clear
10:35 AM 22.8 °F 10.9 °F 3.4 °F 43% 30.38 in 10.0 mi NNW 12.7 mph 17.3 mph N/A   Clear
10:55 AM 23.5 °F 11.8 °F 3.4 °F 42% 30.38 in 10.0 mi NW 12.7 mph 19.6 mph N/A   Clear
11:15 AM 24.4 °F 14.9 °F 2.5 °F 39% 30.38 in 10.0 mi NW 9.2 mph 19.6 mph N/A   Clear
11:35 AM 24.6 °F 12.7 °F 1.2 °F 36% 30.38 in 10.0 mi NNW 13.8 mph 21.9 mph N/A   Clear
11:55 AM 25.3 °F 15.3 °F 2.8 °F 38% 30.37 in 10.0 mi NW 10.4 mph 18.4 mph N/A   Clear
12:15 PM 26.6 °F 15.7 °F 3.4 °F 37% 30.37 in 10.0 mi WNW 12.7 mph 19.6 mph N/A   Clear
12:35 PM 27.3 °F 16.1 °F 3.2 °F 36% 30.36 in 10.0 mi NW 13.8 mph 18.4 mph N/A   Clear
12:55 PM 27.9 °F 19.1 °F 4.1 °F 36% 30.35 in 10.0 mi NW 9.2 mph 18.4 mph N/A   Clear
1:15 PM 29.7 °F 21.3 °F 4.3 °F 34% 30.33 in 10.0 mi WNW 9.2 mph 16.1 mph N/A   Clear
1:35 PM 29.8 °F 22.2 °F 4.1 °F 34% 30.32 in 10.0 mi WNW 8.1 mph 19.6 mph N/A   Clear
1:55 PM 30.6 °F 22.4 °F 3.9 °F 32% 30.31 in 10.0 mi NW 9.2 mph - N/A   Clear
2:15 PM 31.6 °F 22.6 °F 3.9 °F 31% 30.30 in 10.0 mi NW 11.5 mph 18.4 mph N/A   Clear
2:35 PM 31.5 °F 20.9 °F 3.4 °F 30% 30.28 in 10.0 mi NNW 15.0 mph 18.4 mph N/A   Clear
2:55 PM 33.1 °F 24.4 °F 4.5 °F 30% 30.26 in 10.0 mi NW 11.5 mph 18.4 mph N/A   Clear
3:15 PM 32.9 °F 24.7 °F 4.6 °F 30% 30.25 in 10.0 mi NW 10.4 mph 19.6 mph N/A   Clear
3:35 PM 33.6 °F 25.0 °F 4.8 °F 30% 30.24 in 10.0 mi NW 11.5 mph - N/A   Clear
3:55 PM 34.0 °F 26.0 °F 5.7 °F 31% 30.23 in 10.0 mi NW 10.4 mph 20.7 mph N/A   Clear
4:15 PM 34.5 °F 27.9 °F 6.1 °F 30% 30.22 in 10.0 mi NW 8.1 mph 18.4 mph N/A   Clear
4:35 PM 34.9 °F 25.7 °F 6.8 °F 31% 30.21 in 10.0 mi NW 13.8 mph 18.4 mph N/A   Clear
4:55 PM 34.3 °F 25.9 °F 6.3 °F 31% 30.20 in 10.0 mi NNW 11.5 mph 17.3 mph N/A   Clear
5:15 PM 34.7 °F 27.5 °F 6.8 °F 31% 30.19 in 10.0 mi NNW 9.2 mph 16.1 mph N/A   Clear
5:35 PM 34.9 °F 26.6 °F 7.3 °F 32% 30.18 in 10.0 mi NNW 11.5 mph 17.3 mph N/A   Clear
5:55 PM 35.1 °F 28.6 °F 7.7 °F 32% 30.18 in 10.0 mi NNW 8.1 mph - N/A   Clear
6:15 PM 34.5 °F 28.6 °F 7.7 °F 33% 30.17 in 10.0 mi NNW 6.9 mph - N/A   Clear
6:35 PM 34.0 °F 28.0 °F 7.7 °F 33% 30.16 in 10.0 mi NNW 6.9 mph - N/A   Clear
6:55 PM 33.4 °F 27.3 °F 7.5 °F 34% 30.15 in 10.0 mi NNW 6.9 mph - N/A   Clear
7:15 PM 32.4 °F 26.0 °F 7.5 °F 35% 30.15 in 10.0 mi North 6.9 mph - N/A   Clear
7:35 PM 31.5 °F - 8.6 °F 38% 30.15 in 10.0 mi Calm Calm - N/A   Clear
7:55 PM 29.5 °F - 9.0 °F 42% 30.15 in 10.0 mi Calm Calm - N/A   Clear
8:15 PM 30.2 °F - 8.4 °F 40% 30.15 in 10.0 mi Calm Calm - N/A   Clear
8:35 PM 29.1 °F - 8.6 °F 42% 30.15 in 10.0 mi Calm Calm - N/A   Clear
8:55 PM 30.2 °F - 7.9 °F 39% 30.15 in 10.0 mi Calm Calm - N/A   Clear
9:15 PM 29.3 °F - 7.9 °F 41% 30.15 in 10.0 mi Calm Calm - N/A   Clear
9:35 PM 28.4 °F - 9.1 °F 44% 30.14 in 10.0 mi Calm Calm - N/A   Clear
9:55 PM 26.6 °F 21.2 °F 10.4 °F 51% 30.13 in 10.0 mi NNE 4.6 mph - N/A   Clear
10:15 PM 25.5 °F 21.3 °F 11.3 °F 55% 30.13 in 10.0 mi East 3.5 mph - N/A   Clear
10:35 PM 25.2 °F 19.5 °F 12.2 °F 58% 30.11 in 10.0 mi East 4.6 mph - N/A   Clear
10:55 PM 25.0 °F 19.3 °F 12.6 °F 59% 30.11 in 10.0 mi East 4.6 mph - N/A   Clear
11:15 PM 25.0 °F 20.7 °F 12.2 °F 58% 30.11 in 10.0 mi East 3.5 mph - N/A   Clear
11:35 PM 24.3 °F 18.4 °F 12.4 °F 61% 30.10 in 10.0 mi ENE 4.6 mph - N/A   Clear
11:55 PM 23.7 °F 16.6 °F 12.7 °F 63% 30.10 in 10.0 mi East 5.8 mph - N/A   Clear